SCP
2 2 2 2 2 2 1 1 1 1 1 1 1 1 1 1 1 1 1 1 0 0 0 0 0 0 0 0 0 0 0 0 0 0 0 0 0 0 0 0 0 0 0
2 2 3 2 2 2 1 1 1 1 1 1 1 1 1 1 1 1 1 0 0 0 0 0 0 0 0 0 0 0 0 0 0 0 0 0 0 0 0 0 0 0 0
3 3 3 3 3 2 2 1 1 1 1 1 1 1 1 1 1 1 0 0 0 0 0 0 0 0 0 0 0 0 0 0 0 0 0 0 0 0 0 0 0 0 0
3 3 4 4 3 2 2 2 2 1 1 1 1 1 1 1 1 1 1 0 0 0 0 0 0 0 0 0 0 0 0 0 0 0 0 0 0 0 0 0 0 0 0
3 3 4 4 3 2 2 2 2 1 1 1 1 1 1 1 1 1 1 0 0 0 0 0 0 0 0 0 0 0 0 0 0 0 0 0 0 0 0 0 0 0 0
4 4 4 4 4 2 2 2 2 1 1 1 1 1 1 1 1 1 1 0 0 0 0 0 0 0 0 0 0 0 0 0 0 0 0 0 0 0 0 0 0 0 0
5 4 4 5 4 3 2 2 2 1 1 1 1 1 1 1 1 1 1 1 0 0 0 0 0 0 0 0 0 0 0 0 0 0 0 0 0 0 0 0 0 0 0
4 4 4 4 4 3 2 2 1 1 1 1 1 1 1 1 1 1 1 1 1 0 0 0 1 1 0 0 0 0 0 0 0 0 0 0 0 0 0 0 0 0 0
3 3 3 3 3 3 2 1 1 1 1 1 1 1 1 1 1 1 1 1 1 0 0 1 1 1 1 1 0 0 0 0 0 0 0 0 0 0 0 0 0 0 0
3 3 3 3 3 3 2 1 1 1 1 1 1 1 1 1 1 1 1 1 1 0 0 0 1 1 1 1 1 0 0 0 0 0 0 0 0 0 0 0 0 0 0
3 3 3 3 2 2 2 1 1 1 1 1 1 1 1 1 1 1 1 1 1 1 1 1 1 1 1 1 1 1 1 0 0 0 0 0 0 0 0 0 0 0 0
4 4 4 3 3 2 2 2 1 1 1 1 1 1 1 1 1 1 1 1 1 1 1 1 1 1 1 1 1 1 1 1 0 0 0 0 1 1 1 1 1 1 0
4 4 4 4 3 2 2 2 2 1 1 1 1 1 1 1 1 1 1 1 1 1 1 1 1 1 1 1 1 1 1 1 1 0 0 0 1 1 1 1 1 1 1
3 3 3 4 3 2 2 2 2 2 1 1 1 1 1 1 1 1 1 1 1 1 1 1 1 1 2 2 1 1 1 1 1 1 1 1 1 1 1 1 1 1 1
2 2 2 2 2 1 1 1 1 2 2 2 1 1 2 1 1 1 1 1 1 1 1 1 1 1 1 1 1 1 1 1 1 1 1 1 1 1 1 1 1 1 1
2 2 2 2 1 1 1 1 2 3 2 2 2 2 2 2 1 1 1 1 1 1 1 1 1 1 1 1 1 1 1 1 1 1 1 1 1 1 1 2 2 1 1
1 2 2 1 1 1 1 1 2 4 3 2 2 2 2 2 1 1 1 1 1 1 1 1 1 1 1 1 1 1 1 1 1 1 1 1 1 1 1 2 2 2 1
1 1 1 1 1 1 1 1 2 2 2 1 1 1 1 1 1 1 1 1 1 1 0 0 0 0 0 0 0 0 0 0 0 0 0 1 1 1 2 2 2 2 1
1 1 1 1 1 1 1 1 1 1 1 1 1 1 1 1 1 1 1 0 1 0 0 0 0 0 0 0 0 0 0 0 0 0 0 1 1 1 1 2 2 2 1
1 1 1 1 1 1 1 1 1 1 1 1 1 1 1 1 1 0 0 1 0 0 0 0 0 0 0 0 0 0 0 0 0 0 0 1 1 1 1 1 1 1 1
1 1 1 1 1 1 1 1 1 0 0 1 1 1 1 1 0 0 0 0 0 0 0 0 0 0 0 0 0 0 0 0 0 0 0 1 1 1 1 1 1 1 1
1 1 1 0 0 1 1 1 0 0 0 0 0 0 1 1 0 0 0 0 0 0 0 0 0 0 0 0 0 0 0 0 0 0 0 1 1 1 1 1 1 1 1
1 1 0 0 0 0 1 0 0 0 0 0 0 0 0 0 0 0 0 0 0 0 0 0 0 0 0 0 0 0 0 0 0 0 0 1 1 1 1 1 1 1 1
1 1 0 0 0 0 0 0 0 0 0 0 0 0 0 0 0 0 0 0 0 0 0 0 0 0 0 0 0 0 0 0 0 0 0 0 0 0 1 1 1 1 1
1 1 0 0 0 0 0 0 0 0 0 0 0 0 0 0 0 0 0 0 0 0 0 0 0 0 0 0 0 0 0 0 0 0 0 0 0 0 0 0 1 1 1
0 0 0 0 0 0 0 0 0 0 0 0 0 0 0 0 0 0 0 0 0 0 0 0 0 0 0 0 0 0 0 0 0 0 0 0 0 0 0 0 0 0 0
Wind_Speed
6 8 15 16 17 17 17 17 16 16 16 16 16 16 15 15 14 13 12 12 11 10 10 10 10 10 10 11 11 11 11 12 12 13 13 14 14 14 14 15 14 12 16
11 10 16 16 17 17 17 16 16 16 16 16 15 15 14 14 13 12 11 11 10 10 10 10 10 10 10 11 11 11 11 12 12 13 13 13 13 13 14 14 13 10 16
13 10 13 16 17 17 16 16 16 15 15 15 14 14 13 13 12 12 11 10 10 10 10 10 10 10 10 10 10 11 11 11 11 12 12 8 10 13 13 14 14 15 15
12 9 11 16 17 16 16 15 15 15 15 14 14 13 12 12 12 11 10 10 9 9 9 9 9 10 10 10 10 10 10 10 11 11 7 7 8 12 13 14 14 14 14
10 8 11 17 16 16 15 15 14 14 14 14 13 12 12 11 11 10 10 9 9 9 9 9 9 9 9 9 9 9 9 9 10 8 6 6 6 11 13 13 13 13 14
8 7 10 16 16 15 15 14 14 13 13 13 12 11 11 11 10 10 9 9 8 8 8 9 9 9 9 9 8 8 7 8 8 6 5 5 5 10 12 13 13 13 13
9 6 9 15 15 15 14 14 13 13 12 12 11 11 10 9 9 9 9 8 8 8 8 8 8 8 8 7 7 6 6 7 6 5 5 5 5 9 12 12 12 12 12
10 7 7 14 15 14 13 13 12 12 11 11 11 10 9 9 8 8 8 8 8 7 7 7 7 8 7 6 5 5 5 6 6 6 5 5 7 9 11 12 12 12 12
8 6 5 6 9 12 13 12 12 11 11 10 10 9 9 8 7 7 7 7 7 7 7 7 7 7 6 5 4 4 4 6 5 4 5 4 8 10 11 12 12 12 12
6 5 4 4 4 4 6 11 11 10 10 9 9 8 8 7 7 7 6 6 6 7 6 6 6 6 6 5 4 4 4 5 3 4 3 5 10 11 12 12 12 12 12
6 4 4 4 3 4 4 7 8 9 8 8 7 8 6 2 2 2 4 5 6 6 6 6 6 6 5 4 4 3 3 2 3 2 3 6 10 12 12 12 12 12 12
7 5 4 4 3 3 4 3 2 3 3 3 2 2 2 2 1 1 2 4 6 6 5 6 6 5 3 1 1 2 1 2 2 3 3 8 10 12 13 13 13 13 13
6 6 4 3 2 3 2 2 1 1 2 2 2 2 2 2 1 0 0 1 2 3 2 3 2 1 1 1 1 1 2 2 2 2 4 8 10 12 14 14 14 14 14
5 5 4 4 3 2 2 2 2 1 1 1 2 2 2 2 1 1 0 0 0 0 1 1 1 1 1 2 2 2 2 2 2 2 3 8 9 11 13 14 15 15 15
5 4 4 4 4 3 2 2 3 2 2 2 2 2 3 2 2 1 1 1 0 0 1 1 1 1 1 1 2 2 3 3 3 3 2 6 8 10 13 14 15 16 16
5 5 4 4 4 3 2 2 2 2 2 2 2 2 3 2 2 2 1 1 1 0 1 1 1 1 1 1 1 2 2 2 3 3 3 4 7 9 12 14 15 16 16
6 5 5 4 4 3 2 2 2 2 2 2 2 2 3 2 2 2 1 1 0 0 1 1 1 1 1 1 2 2 2 2 2 3 3 3 4 8 11 13 14 15 16
5 5 5 4 4 4 3 2 2 2 2 2 2 2 2 3 3 2 2 1 1 1 1 1 1 1 0 1 1 2 2 2 4 4 3 4 3 4 8 13 13 14 16
5 6 5 5 5 4 4 3 3 3 3 2 2 2 2 2 3 3 2 1 1 2 1 1 1 1 0 1 2 2 2 2 3 4 4 5 4 5 4 8 12 13 15
5 5 6 5 5 5 4 3 3 3 2 2 2 1 2 2 2 3 2 2 2 2 2 1 2 1 0 1 1 2 2 2 2 3 4 3 3 5 5 6 5 7 12
5 5 5 6 5 5 3 3 2 2 1 2 2 2 2 2 2 3 2 2 2 2 1 1 1 2 2 1 1 2 2 2 2 2 2 2 3 3 4 5 4 4 5
5 4 5 5 5 4 3 2 2 3 2 1 1 2 2 2 2 2 3 2 1 2 2 2 2 1 1 2 1 1 2 3 2 1 1 1 2 2 3 4 4 5 5
6 6 5 5 5 5 4 3 3 3 3 2 2 2 3 2 1 2 2 2 1 1 1 1 1 2 1 1 1 1 1 1 2 2 2 1 2 1 2 3 4 4 5
5 5 5 5 5 4 4 4 4 3 2 1 1 1 2 3 2 2 2 2 2 1 1 0 1 1 1 0 1 0 1 1 1 2 2 2 3 2 3 3 3 3 4
6 5 5 5 4 4 4 5 5 4 2 1 2 3 3 3 3 3 3 2 2 1 1 1 1 1 1 1 1 0 0 0 1 1 3 3 3 2 3 3 2 2 3
6 5 5 5 4 4 4 5 5 5 4 3 2 2 2 2 2 3 2 2 2 1 0 0 0 0 0 1 1 1 1 1 1 2 3 3 3 3 3 3 2 2 3
Wind_Direction
151 153 151 145 138 132 127 124 122 122 122 123 125 127 129 130 130 129 127 125 121 116 113 110 109 107 107 107 108 109 109 112 114 115 115 114 114 114 114 113 111 112 114
142 151 151 145 140 134 130 128 127 127 127 127 128 130 131 132 132 131 129 127 124 120 117 114 111 110 110 110 111 112 113 116 118 117 116 116 116 115 115 116 115 118 118
140 147 148 146 141 137 134 133 132 132 132 132 132 133 134 134 134 133 131 130 127 123 119 116 114 113 112 112 114 115 116 116 117 117 114 113 118 119 120 120 120 119 118
140 142 147 148 144 140 139 139 138 138 138 138 138 137 137 138 138 136 134 133 131 128 125 122 119 118 116 115 116 118 118 117 118 116 110 117 122 125 125 123 122 122 121
136 139 152 148 146 144 144 144 144 143 143 143 143 143 143 143 142 141 139 137 136 133 131 128 125 124 122 121 120 121 121 122 122 115 111 111 116 130 129 128 127 126 125
132 138 154 149 149 149 149 149 149 150 149 149 149 149 150 150 148 147 146 144 142 140 137 133 130 130 129 127 126 124 125 127 118 117 116 121 128 137 136 135 133 131 130
136 141 155 154 153 153 154 155 156 156 156 154 154 154 156 157 157 155 154 150 148 147 144 141 139 138 136 132 129 125 128 133 125 130 132 136 145 146 143 141 139 136 134
141 141 150 158 157 158 159 160 161 162 161 161 160 162 164 165 164 163 160 160 159 158 157 153 151 149 144 138 130 123 124 132 137 144 145 148 157 156 152 147 144 142 139
134 129 134 150 160 163 164 165 167 167 167 168 168 169 170 171 170 175 173 175 173 172 171 168 166 162 157 151 138 128 129 131 134 149 161 160 167 165 161 155 153 150 148
123 117 116 121 130 146 162 169 170 172 172 172 172 173 176 179 182 187 183 186 188 188 188 186 186 181 173 167 157 146 137 121 137 160 167 180 179 175 170 166 163 160 158
138 124 116 119 122 131 148 168 169 173 175 173 176 181 175 160 166 187 198 200 204 206 205 205 206 201 191 189 184 165 135 125 148 169 179 198 191 185 180 176 173 170 167
157 148 131 131 138 144 164 150 142 155 157 151 147 155 136 129 150 184 221 215 212 214 219 222 222 220 204 182 216 173 135 156 173 189 202 211 202 194 189 184 181 180 177
157 155 149 141 146 154 150 138 132 130 132 138 144 138 123 118 105 60 50 271 258 228 222 234 232 220 191 188 210 209 190 182 193 206 212 217 212 203 197 192 189 187 185
153 150 138 144 152 161 159 151 144 136 137 143 140 137 129 127 123 111 112 294 294 191 187 207 213 222 207 202 209 224 221 201 193 207 225 223 214 211 207 200 197 194 192
155 148 145 157 160 166 166 164 146 147 143 137 130 137 140 137 135 112 81 56 15 161 168 202 217 211 225 230 215 214 227 226 214 208 230 232 218 213 212 208 204 202 199
154 147 140 146 148 147 153 141 130 137 127 120 124 132 132 129 130 110 88 62 359 266 185 184 212 210 208 210 228 224 227 233 237 229 226 241 235 223 216 214 210 209 206
153 141 134 134 126 128 134 132 123 123 119 120 119 113 119 122 125 119 114 90 354 347 78 92 122 126 188 222 242 247 238 247 248 241 233 232 238 233 224 219 216 213 212
142 140 137 143 129 127 124 109 101 100 108 110 108 110 118 123 123 114 105 83 49 58 70 95 92 125 204 251 252 261 255 252 252 246 237 235 232 235 231 227 222 217 216
145 145 143 140 136 126 112 98 84 80 84 87 86 91 106 117 119 114 105 76 64 70 60 69 71 87 217 272 262 257 265 262 262 256 247 242 236 233 231 232 229 223 221
134 135 137 131 126 121 110 93 77 69 65 67 68 76 94 100 107 106 96 82 77 74 57 54 70 56 35 285 276 280 271 266 264 262 261 255 244 239 235 235 233 232 230
124 133 137 134 131 127 118 117 113 102 76 56 50 56 73 91 100 101 96 85 83 84 70 68 84 57 23 9 32 334 314 296 282 273 283 276 262 250 240 235 235 235 238
145 142 133 133 131 130 129 133 131 123 105 85 41 44 50 76 110 129 121 113 102 89 61 54 73 81 22 32 78 54 343 340 331 321 293 266 279 275 258 246 237 234 238
154 156 150 138 131 126 124 113 96 74 57 45 31 25 13 39 89 113 126 122 114 110 101 70 88 113 82 16 51 124 137 270 307 318 327 344 339 306 281 267 247 242 240
160 152 144 139 131 128 129 127 127 125 124 118 72 40 23 32 57 94 121 129 122 113 108 29 108 123 130 85 348 14 181 178 226 313 319 337 342 333 315 296 275 255 246
154 150 144 136 131 128 122 121 116 112 119 104 79 69 48 31 38 61 88 100 99 94 89 55 75 103 147 171 193 212 70 75 179 222 290 318 328 310 304 294 285 277 262
149 148 140 139 139 135 127 123 131 136 134 122 106 89 53 29 24 41 77 87 95 94 78 70 81 106 173 192 199 196 188 193 203 207 249 281 296 296 301 292 282 280 272